Tracking 19795 objects as of 17-Jul-2019
HD Live streaming from Space Station
objects crossing your sky now

ARABSAT 2B

Track ARABSAT 2B now!
ARABSAT 2B is classified as:


NORAD ID: 24652
Int'l Code: 1996-063A
Perigee: 36,022.6 km
Apogee: 36,048.0 km
Inclination: 5.2 °
Period: 1,448.5 minutes
Semi major axis: 42406 km
RCS: 3.8888 m2 (large)
Launch date: November 13, 1996
Source: Arab Satellite Communications Organization (AB)
Launch site: FRENCH GUIANA (FRGUI)

Second generation; radio and tv communications to Middle East.
aabbcc
Your satellite tracking list
Your tracking list is empty




NASA's NSSDC Master Catalog

Two Line Element Set (TLE):
1 24652U 96063A   19197.87891606 -.00000256 +00000-0 +00000-0 0  9999
2 24652 005.2146 066.8948 0002996 027.5824 135.1257 00.99416220083338
Source of the keplerian elements: AFSPC